| time (UTC) | temp F | wind direction | speed MPH | gust MPH | rain 1hr in | rain 24hr in | rain mn in | humidity % | barometer mb |
| 20260510164552 | 61 | 49 | 1.0 | 6.0 | 0.00 | 0.00 | 0.00 | 32 | 1017.2 |
| 20260510163059 | 60 | 352 | 2.0 | 7.0 | 0.00 | 0.00 | 0.00 | 31 | 1017.0 |
| 20260510161554 | 61 | 292 | 0.0 | 2.0 | 0.00 | 0.00 | 0.00 | 34 | 1016.8 |
| 20260510160100 | 60 | 0 | 0.0 | 2.0 | 0.00 | 0.00 | 0.00 | 32 | 1016.7 |
| 20260510154555 | 60 | 282 | 0.0 | 2.0 | 0.00 | 0.00 | 0.00 | 34 | 1016.6 |
| 20260510153107 | 59 | 185 | 0.0 | 2.0 | 0.00 | 0.00 | 0.00 | 34 | 1016.8 |
| 20260510151553 | 58 | 0 | 0.0 | 1.0 | 0.00 | 0.00 | 0.00 | 37 | 1016.9 |
| 20260510150053 | 58 | 0 | 0.0 | 2.0 | 0.00 | 0.00 | 0.00 | 36 | 1016.8 |
| 20260510144552 | 57 | 0 | 0.0 | 2.0 | 0.00 | 0.00 | 0.00 | 35 | 1016.7 |
| 20260510143110 | 56 | 0 | 0.0 | 2.0 | 0.00 | 0.00 | 0.00 | 37 | 1016.6 |
| 20260510141552 | 56 | 136 | 0.0 | 1.0 | 0.00 | 0.00 | 0.00 | 38 | 1016.5 |
| 20260510140053 | 55 | 97 | 0.0 | 2.0 | 0.00 | 0.00 | 0.00 | 39 | 1016.5 |
| 20260510134557 | 54 | 0 | 0.0 | 0.0 | 0.00 | 0.00 | 0.00 | 47 | 1016.3 |
| 20260510133050 | 53 | 0 | 0.0 | 0.0 | 0.00 | 0.00 | 0.00 | 50 | 1016.3 |
| 20260510131551 | 52 | 0 | 0.0 | 2.0 | 0.00 | 0.00 | 0.00 | 52 | 1016.1 |
| 20260510130053 | 51 | 0 | 0.0 | 0.0 | 0.00 | 0.00 | 0.00 | 58 | 1016.1 |
| 20260510124557 | 50 | 0 | 0.0 | 1.0 | 0.00 | 0.00 | 0.00 | 60 | 1016.1 |
| 20260510123053 | 48 | 0 | 0.0 | 0.0 | 0.00 | 0.00 | 0.00 | 66 | 1015.6 |
| 20260510121551 | 46 | 0 | 0.0 | 0.0 | 0.00 | 0.00 | 0.00 | 68 | 1015.4 |
| 20260510120050 | 45 | 0 | 0.0 | 0.0 | 0.00 | 0.00 | 0.00 | 71 | 1015.3 |
| 20260510114556 | 43 | 0 | 0.0 | 1.0 | 0.00 | 0.00 | 0.00 | 73 | 1015.0 |
| 20260510113049 | 41 | 0 | 0.0 | 0.0 | 0.00 | 0.00 | 0.00 | 74 | 1014.7 |
| 20260510111547 | 41 | 0 | 0.0 | 0.0 | 0.00 | 0.00 | 0.00 | 75 | 1014.6 |
| 20260510110052 | 40 | 0 | 0.0 | 0.0 | 0.00 | 0.00 | 0.00 | 75 | 1014.3 |
| 20260510104553 | 40 | 0 | 0.0 | 0.0 | 0.00 | 0.00 | 0.00 | 75 | 1014.0 |
| 20260510103053 | 41 | 0 | 0.0 | 0.0 | 0.00 | 0.00 | 0.00 | 74 | 1014.0 |
| 20260510101559 | 41 | 0 | 0.0 | 0.0 | 0.00 | 0.00 | 0.00 | 73 | 1013.8 |
| 20260510100110 | 42 | 0 | 0.0 | 0.0 | 0.00 | 0.00 | 0.00 | 72 | 1013.4 |
| 20260510094556 | 42 | 0 | 0.0 | 0.0 | 0.00 | 0.00 | 0.00 | 71 | 1013.3 |
| 20260510093054 | 42 | 0 | 0.0 | 0.0 | 0.00 | 0.00 | 0.00 | 69 | 1013.3 |
| 20260510091549 | 44 | 0 | 0.0 | 0.0 | 0.00 | 0.00 | 0.00 | 67 | 1013.3 |
| 20260510090053 | 45 | 0 | 0.0 | 0.0 | 0.00 | 0.00 | 0.00 | 64 | 1013.2 |
| 20260510084552 | 46 | 0 | 0.0 | 0.0 | 0.00 | 0.00 | 0.00 | 60 | 1013.1 |
| 20260510083101 | 47 | 0 | 0.0 | 0.0 | 0.00 | 0.00 | 0.00 | 58 | 1013.1 |
| 20260510081551 | 47 | 58 | 0.0 | 1.0 | 0.00 | 0.00 | 0.00 | 57 | 1012.6 |
| 20260510080052 | 48 | 0 | 0.0 | 2.0 | 0.00 | 0.00 | 0.00 | 57 | 1012.5 |
| 20260510074546 | 48 | 0 | 0.0 | 2.0 | 0.00 | 0.00 | 0.00 | 58 | 1012.3 |
| 20260510073051 | 48 | 0 | 0.0 | 1.0 | 0.00 | 0.00 | 0.00 | 58 | 1012.2 |
| 20260510071558 | 49 | 0 | 0.0 | 1.0 | 0.00 | 0.00 | 0.00 | 61 | 1011.9 |
| 20260510070101 | 49 | 0 | 0.0 | 1.0 | 0.00 | 0.00 | 0.00 | 65 | 1011.7 |
| 20260510064550 | 47 | 0 | 0.0 | 1.0 | 0.00 | 0.00 | 0.00 | 69 | 1011.4 |
| 20260510063058 | 46 | 0 | 0.0 | 0.0 | 0.00 | 0.00 | 0.00 | 72 | 1011.1 |
| 20260510061555 | 46 | 0 | 0.0 | 0.0 | 0.00 | 0.00 | 0.00 | 74 | 1010.9 |
| 20260510060055 | 47 | 0 | 0.0 | 0.0 | 0.00 | 0.00 | 0.00 | 74 | 1010.7 |
| 20260510054552 | 47 | 0 | 0.0 | 0.0 | 0.00 | 0.00 | 0.00 | 74 | 1010.4 |
| 20260510053052 | 47 | 0 | 0.0 | 0.0 | 0.00 | 0.00 | 0.00 | 73 | 1010.3 |
| 20260510051601 | 48 | 0 | 0.0 | 0.0 | 0.00 | 0.00 | 0.00 | 72 | 1010.1 |
| 20260510050055 | 49 | 0 | 0.0 | 0.0 | 0.00 | 0.00 | 0.00 | 70 | 1010.0 |
| 20260510044555 | 49 | 0 | 0.0 | 0.0 | 0.00 | 0.00 | 0.00 | 68 | 1009.7 |
| 20260510043056 | 50 | 0 | 0.0 | 0.0 | 0.00 | 0.00 | 0.00 | 64 | 1009.5 |
| 20260510041551 | 51 | 0 | 0.0 | 0.0 | 0.00 | 0.00 | 0.00 | 61 | 1009.2 |
| 20260510040100 | 52 | 0 | 0.0 | 0.0 | 0.00 | 0.00 | 0.00 | 58 | 1009.2 |
| 20260510034551 | 53 | 0 | 0.0 | 0.0 | 0.00 | 0.00 | 0.00 | 55 | 1008.8 |
| 20260510033112 | 55 | 0 | 0.0 | 0.0 | 0.00 | 0.00 | 0.00 | 54 | 1008.8 |
| 20260510031559 | 55 | 0 | 0.0 | 0.0 | 0.00 | 0.00 | 0.00 | 52 | 1008.8 |
| 20260510030053 | 55 | 0 | 0.0 | 0.0 | 0.00 | 0.00 | 0.00 | 52 | 1008.7 |
| 20260510024556 | 55 | 0 | 0.0 | 0.0 | 0.00 | 0.00 | 0.00 | 51 | 1008.6 |
| 20260510023051 | 56 | 0 | 0.0 | 0.0 | 0.00 | 0.00 | 0.00 | 49 | 1008.2 |
| 20260510021552 | 56 | 0 | 0.0 | 2.0 | 0.00 | 0.00 | 0.00 | 48 | 1007.9 |
| 20260510020054 | 57 | 69 | 0.0 | 1.0 | 0.00 | 0.00 | 0.00 | 47 | 1007.4 |
| 20260510014558 | 57 | 0 | 0.0 | 1.0 | 0.00 | 0.00 | 0.00 | 46 | 1007.0 |
| 20260510013056 | 58 | 0 | 0.0 | 1.0 | 0.00 | 0.00 | 0.00 | 46 | 1006.5 |
| 20260510011557 | 59 | 0 | 0.0 | 2.0 | 0.00 | 0.00 | 0.00 | 45 | 1006.3 |
| 20260510004559 | 62 | 80 | 0.0 | 3.0 | 0.00 | 0.00 | 0.00 | 41 | 1005.4 |
| 20260510003111 | 68 | 52 | 1.0 | 7.0 | 0.00 | 0.00 | 0.00 | 36 | 1005.0 |
| 20260510001554 | 70 | 288 | 1.0 | 6.0 | 0.00 | 0.00 | 0.00 | 35 | 1004.5 |
| 20260509234604 | 72 | 301 | 2.0 | 9.0 | 0.00 | 0.00 | 0.00 | 33 | 1003.9 |
| 20260509233055 | 73 | 236 | 1.0 | 6.0 | 0.00 | 0.00 | 0.00 | 32 | 1003.6 |
| 20260509231558 | 73 | 318 | 2.0 | 7.0 | 0.00 | 0.00 | 0.00 | 32 | 1003.4 |
| 20260509230105 | 73 | 257 | 2.0 | 9.0 | 0.00 | 0.00 | 0.00 | 30 | 1003.2 |
| 20260509224554 | 73 | 13 | 4.0 | 17.0 | 0.00 | 0.00 | 0.00 | 29 | 1002.9 |
| 20260509223052 | 73 | 258 | 5.0 | 16.0 | 0.00 | 0.00 | 0.00 | 28 | 1002.8 |
| 20260509221552 | 74 | 252 | 2.0 | 10.0 | 0.00 | 0.00 | 0.00 | 28 | 1002.5 |
| 20260509220055 | 74 | 240 | 3.0 | 13.0 | 0.00 | 0.00 | 0.00 | 30 | 1002.4 |
| 20260509214554 | 75 | 52 | 4.0 | 9.0 | 0.00 | 0.00 | 0.00 | 28 | 1002.1 |
| 20260509213103 | 75 | 276 | 3.0 | 13.0 | 0.00 | 0.00 | 0.00 | 29 | 1001.7 |
| 20260509211603 | 75 | 285 | 1.0 | 14.0 | 0.00 | 0.00 | 0.00 | 30 | 1001.7 |
| 20260509204558 | 74 | 312 | 6.0 | 14.0 | 0.00 | 0.00 | 0.00 | 29 | 1001.7 |
| 20260509203056 | 74 | 304 | 4.0 | 13.0 | 0.00 | 0.00 | 0.00 | 29 | 1001.6 |
| 20260509201558 | 73 | 259 | 1.0 | 11.0 | 0.00 | 0.00 | 0.00 | 31 | 1001.7 |
| 20260509194556 | 74 | 302 | 3.0 | 13.0 | 0.00 | 0.00 | 0.00 | 31 | 1002.0 |
| 20260509193052 | 73 | 293 | 6.0 | 19.0 | 0.00 | 0.00 | 0.00 | 30 | 1002.1 |
| 20260509191550 | 73 | 260 | 3.0 | 10.0 | 0.00 | 0.00 | 0.00 | 29 | 1002.2 |
| 20260509190050 | 73 | 254 | 4.0 | 8.0 | 0.00 | 0.00 | 0.00 | 30 | 1001.8 |
| 20260509184551 | 73 | 249 | 2.0 | 9.0 | 0.00 | 0.00 | 0.00 | 34 | 1001.9 |
| 20260509183135 | 72 | 288 | 2.0 | 10.0 | 0.00 | 0.00 | 0.00 | 33 | 1002.0 |
| 20260509181608 | 73 | 269 | 3.0 | 11.0 | 0.00 | 0.00 | 0.00 | 32 | 1002.0 |
| 20260509180052 | 72 | 286 | 2.0 | 9.0 | 0.00 | 0.00 | 0.00 | 32 | 1002.2 |
| 20260509174550 | 72 | 262 | 2.0 | 7.0 | 0.00 | 0.00 | 0.00 | 42 | 1002.2 |
| 20260509173051 | 72 | 257 | 0.0 | 5.0 | 0.00 | 0.00 | 0.00 | 45 | 1002.2 |
| 20260509171600 | 71 | 266 | 1.0 | 6.0 | 0.00 | 0.00 | 0.00 | 48 | 1002.4 |
| 20260509170057 | 70 | 275 | 2.0 | 9.0 | 0.00 | 0.00 | 0.00 | 47 | 1002.4 |